User: anonymous   Login
Location: Carabito
(9.8355°N, 67.9249°W)
Time: 13:28:31
(UTC+00:00)
Language:

Cosmos 1975 Rocket - Orbit

View from above orbital plane
View from above orbital plane
View from above satellite
View from above satellite

Ground track
Ground track

The orbit data is extracted from the following two-line orbital elements,

1 19574U 88093B   24206.18137992  .00000948  00000-0  10928-3 0  9992
2 19574  82.5294 238.7371 0020677 196.7876 227.8627 14.84533756934034
Epoch (UTC): 24 July 2024 04:21:11
Eccentricity: 0.0020677
inclination: 82.5294°
perigee height: 600 km
apogee height: 629 km
right ascension of ascending node: 238.7371°
argument of perigee: 196.7876°
revolutions per day: 14.84533756
mean anomaly at epoch: 227.8627°
orbit number at epoch: 93403

The dashed part of the orbit path shows where the satellite is in the earth's shadow,  

DLR